When you browse on this site, cookies collect data to enhance your experience and personalize the content and advertising you see.
Visit our Privacy Policy to learn more. By continuing to use the site, you agree to this use of cookies and data.

Hourly Weather Staryy Sig

Today, 11 August, Tuesday

Time Temperature Precipitation Wind Pressure Humidity
00:00 +13°C° 0 mm 2 mps 742 mmHg 95%
01:00 +12°C° 0 mm 2 mps 742 mmHg 96%
02:00 +10°C° 0 mm 2 mps 742 mmHg 97%
03:00 +10°C° 0 mm 2 mps 742 mmHg 98%
04:00 +10°C° 0 mm 2 mps 742 mmHg 98%
05:00 +9°C° 0 mm 2 mps 742 mmHg 98%
06:00 +12°C° 0 mm 2 mps 742 mmHg 94%
07:00 +12°C° 0 mm 3 mps 742 mmHg 90%
08:00 +13°C° 0 mm 3 mps 742 mmHg 86%
09:00 +14°C° 0.1 mm 3 mps 742 mmHg 81%
10:00 +16°C° 0.1 mm 3 mps 742 mmHg 75%
11:00 +17°C° 0.1 mm 4 mps 742 mmHg 70%
12:00 +15°C° 0.2 mm 4 mps 742 mmHg 70%
13:00 +15°C° 0.2 mm 4 mps 742 mmHg 71%
14:00 +15°C° 0.2 mm 4 mps 743 mmHg 71%
15:00 +15°C° 0.1 mm 4 mps 742 mmHg 72%
16:00 +15°C° 0.1 mm 4 mps 742 mmHg 72%
17:00 +15°C° 0.1 mm 4 mps 742 mmHg 72%
18:00 +14°C° 0 mm 4 mps 742 mmHg 75%
19:00 +13°C° 0 mm 3 mps 742 mmHg 79%
20:00 +12°C° 0 mm 3 mps 742 mmHg 82%
21:00 +12°C° 0 mm 3 mps 742 mmHg 84%
22:00 +12°C° 0 mm 3 mps 742 mmHg 85%
23:00 +12°C° 0 mm 3 mps 742 mmHg 87%

Tomorrow, 12 August, Wednesday

Time Temperature Precipitation Wind Pressure Humidity
00:00 +12°C° 0 mm 3 mps 742 mmHg 88%
01:00 +12°C° 0 mm 3 mps 742 mmHg 89%
02:00 +12°C° 0 mm 3 mps 742 mmHg 90%
03:00 +12°C° 0.1 mm 3 mps 742 mmHg 90%
04:00 +12°C° 0.1 mm 3 mps 742 mmHg 91%
05:00 +12°C° 0.1 mm 3 mps 742 mmHg 92%
06:00 +12°C° 0 mm 4 mps 742 mmHg 90%
07:00 +12°C° 0 mm 4 mps 742 mmHg 87%
08:00 +12°C° 0 mm 4 mps 742 mmHg 84%
09:00 +13°C° 0 mm 4 mps 743 mmHg 82%
10:00 +13°C° 0 mm 4 mps 743 mmHg 80%
11:00 +13°C° 0 mm 4 mps 743 mmHg 78%
12:00 +15°C° 0.1 mm 4 mps 743 mmHg 71%
13:00 +17°C° 0.1 mm 4 mps 743 mmHg 63%
14:00 +19°C° 0.1 mm 4 mps 743 mmHg 56%
15:00 +18°C° 0.1 mm 4 mps 743 mmHg 60%
16:00 +18°C° 0.1 mm 4 mps 743 mmHg 64%
17:00 +17°C° 0.1 mm 3 mps 743 mmHg 68%
18:00 +16°C° 0.1 mm 3 mps 743 mmHg 74%
19:00 +13°C° 0.1 mm 3 mps 743 mmHg 80%
20:00 +13°C° 0.1 mm 2 mps 743 mmHg 86%
21:00 +12°C° 0 mm 2 mps 743 mmHg 88%
22:00 +10°C° 0 mm 2 mps 743 mmHg 90%
23:00 +9°C° 0 mm 2 mps 743 mmHg 93%

Day after tomorrow, 13 August, Thursday

Time Temperature Precipitation Wind Pressure Humidity
00:00 +9°C° 0 mm 2 mps 743 mmHg 91%
01:00 +9°C° 0 mm 2 mps 743 mmHg 89%
02:00 +10°C° 0 mm 1 mps 743 mmHg 88%
03:00 +11°C° 0 mm 1 mps 743 mmHg 87%
04:00 +11°C° 0 mm 1 mps 743 mmHg 87%
05:00 +11°C° 0 mm 1 mps 743 mmHg 86%
06:00 +12°C° 0 mm 2 mps 743 mmHg 83%
07:00 +12°C° 0 mm 2 mps 743 mmHg 81%
08:00 +13°C° 0 mm 2 mps 743 mmHg 78%
09:00 +14°C° 0 mm 2 mps 743 mmHg 70%
10:00 +15°C° 0 mm 2 mps 743 mmHg 63%
11:00 +16°C° 0 mm 3 mps 743 mmHg 55%
12:00 +16°C° 0 mm 2 mps 743 mmHg 54%
13:00 +16°C° 0 mm 2 mps 743 mmHg 53%
14:00 +17°C° 0 mm 2 mps 742 mmHg 52%
15:00 +16°C° 0 mm 2 mps 742 mmHg 57%
16:00 +16°C° 0 mm 2 mps 742 mmHg 61%
17:00 +15°C° 0 mm 2 mps 742 mmHg 66%
18:00 +14°C° 0 mm 2 mps 742 mmHg 71%
19:00 +13°C° 0 mm 2 mps 743 mmHg 77%
20:00 +10°C° 0 mm 2 mps 743 mmHg 83%
21:00 +10°C° 0 mm 1 mps 743 mmHg 86%
22:00 +10°C° 0 mm 1 mps 743 mmHg 90%
23:00 +9°C° 0 mm 1 mps 743 mmHg 93%

14 August, Friday

Time Temperature Precipitation Wind Pressure Humidity
00:00 +8°C° 0 mm 1 mps 743 mmHg 94%
01:00 +8°C° 0 mm 1 mps 743 mmHg 95%
02:00 +8°C° 0 mm 1 mps 743 mmHg 95%
03:00 +8°C° 0 mm 1 mps 743 mmHg 95%
04:00 +7°C° 0 mm 1 mps 743 mmHg 95%
05:00 +7°C° 0 mm 1 mps 743 mmHg 95%
06:00 +9°C° 0 mm 2 mps 744 mmHg 87%
07:00 +12°C° 0 mm 2 mps 744 mmHg 78%
08:00 +14°C° 0 mm 2 mps 744 mmHg 69%
09:00 +15°C° 0 mm 2 mps 744 mmHg 62%
10:00 +17°C° 0 mm 2 mps 744 mmHg 55%
11:00 +18°C° 0 mm 2 mps 744 mmHg 48%
12:00 +19°C° 0 mm 2 mps 744 mmHg 48%
13:00 +19°C° 0 mm 2 mps 743 mmHg 47%
14:00 +19°C° 0 mm 2 mps 743 mmHg 47%
15:00 +19°C° 0 mm 2 mps 743 mmHg 49%
16:00 +19°C° 0 mm 2 mps 743 mmHg 51%
17:00 +20°C° 0 mm 1 mps 743 mmHg 53%
18:00 +18°C° 0 mm 1 mps 743 mmHg 61%
19:00 +15°C° 0 mm 1 mps 743 mmHg 69%
20:00 +12°C° 0 mm 1 mps 743 mmHg 77%
21:00 +11°C° 0 mm 0 mps 743 mmHg 78%
22:00 +11°C° 0 mm 0 mps 743 mmHg 78%
23:00 +10°C° 0 mm 0 mps 743 mmHg 79%

15 August, Saturday

Time Temperature Precipitation Wind Pressure Humidity
00:00 +11°C° 0 mm 1 mps 743 mmHg 81%
01:00 +11°C° 0 mm 1 mps 743 mmHg 82%
02:00 +10°C° 0 mm 1 mps 743 mmHg 84%
03:00 +10°C° 0 mm 1 mps 743 mmHg 84%
04:00 +11°C° 0 mm 1 mps 743 mmHg 83%
05:00 +11°C° 0 mm 1 mps 743 mmHg 83%
06:00 +13°C° 0 mm 1 mps 743 mmHg 77%
07:00 +14°C° 0 mm 1 mps 743 mmHg 70%
08:00 +16°C° 0 mm 1 mps 743 mmHg 64%
09:00 +19°C° 0 mm 1 mps 743 mmHg 60%
10:00 +20°C° 0 mm 1 mps 743 mmHg 57%
11:00 +22°C° 0 mm 1 mps 743 mmHg 54%
12:00 +22°C° 0.1 mm 1 mps 743 mmHg 57%
13:00 +21°C° 0.1 mm 1 mps 743 mmHg 59%
14:00 +21°C° 0.1 mm 1 mps 742 mmHg 62%
15:00 +21°C° 0.1 mm 1 mps 742 mmHg 66%
16:00 +21°C° 0.1 mm 1 mps 742 mmHg 70%
17:00 +20°C° 0.1 mm 1 mps 742 mmHg 73%
18:00 +16°C° 0 mm 0 mps 742 mmHg 79%
19:00 +15°C° 0 mm 0 mps 742 mmHg 85%
20:00 +13°C° 0 mm 0 mps 742 mmHg 91%
21:00 +13°C° 0 mm 0 mps 742 mmHg 91%
22:00 +12°C° 0 mm 0 mps 742 mmHg 92%
23:00 +12°C° 0 mm 0 mps 742 mmHg 92%

16 August, Sunday

Time Temperature Precipitation Wind Pressure Humidity
00:00 +12°C° 0 mm 0 mps 743 mmHg 93%
01:00 +11°C° 0 mm 0 mps 743 mmHg 93%
02:00 +11°C° 0 mm 0 mps 743 mmHg 93%
03:00 +11°C° 0 mm 0 mps 743 mmHg 94%
04:00 +11°C° 0 mm 0 mps 743 mmHg 94%
05:00 +11°C° 0 mm 0 mps 743 mmHg 94%
06:00 +13°C° 0 mm 0 mps 743 mmHg 87%
07:00 +15°C° 0 mm 0 mps 743 mmHg 80%
08:00 +18°C° 0 mm 0 mps 743 mmHg 73%
09:00 +20°C° 0 mm 0 mps 743 mmHg 66%
10:00 +22°C° 0 mm 0 mps 743 mmHg 60%
11:00 +24°C° 0 mm 0 mps 743 mmHg 53%
12:00 +23°C° 0.1 mm 0 mps 743 mmHg 53%
13:00 +23°C° 0.1 mm 0 mps 743 mmHg 54%
14:00 +23°C° 0.1 mm 0 mps 743 mmHg 54%
15:00 +22°C° 0.1 mm 0 mps 743 mmHg 59%
16:00 +22°C° 0.1 mm 0 mps 743 mmHg 63%
17:00 +21°C° 0.1 mm 0 mps 743 mmHg 67%
18:00 +19°C° 0 mm 0 mps 743 mmHg 73%
19:00 +17°C° 0 mm 0 mps 743 mmHg 79%
20:00 +15°C° 0 mm 0 mps 743 mmHg 84%
21:00 +15°C° 0 mm 0 mps 743 mmHg 86%
22:00 +14°C° 0 mm 0 mps 743 mmHg 88%
23:00 +13°C° 0 mm 0 mps 743 mmHg 91%
Show more